Regional Weather Roundup
Issued by NWS Sioux Falls, SD

Home | Current Version | Previous Version | Text Only | Print | Product List | Glossary Off
Versions: 1 2 3 4 5 6 7 8 9 10 11 12 13 14 15 16 17 18 19 20 21 22 23 24 25 26 27 28 29 30 31 32 33 34 35 36 37 38 39 40 41 42 43 44 45 46 47 48 49 50

000
ASUS43 KFSD 221802
RWRFSD

WEATHER ROUNDUP FOR SE SOUTH DAKOTA/SW MINNESOTA/NW IOWA
NATIONAL WEATHER SERVICE SIOUX FALLS SD
100 PM CDT MON SEP 22 2014

NOTE: "FAIR" INDICATES FEW OR NO CLOUDS BELOW 12,000 FEET WITH NO
SIGNIFICANT WEATHER AND OR OBSTRUCTIONS TO VISIBILITY.


SDZ038>040-050-052>070-221900-
SOUTHEAST SOUTH DAKOTA

CITY           SKY/WX    TMP DP  RH WIND       PRES   REMARKS
CHAMBERLAIN    MOSUNNY   73  49  42 S13G20    30.15F
6HR MIN TEMP:  43; 6HR MAX TEMP:  73;

HURON          MOSUNNY   72  47  40 MISG      30.17F
6HR MIN TEMP:  43; 6HR MAX TEMP:  72;

MADISON        FAIR      68  46  45 S10       30.23F
MITCHELL       MOSUNNY   72  48  42 S13G20    30.20F
6HR MIN TEMP:  41; 6HR MAX TEMP:  72;

SIOUX FALLS    PTSUNNY   70  47  43 S10       30.23F
6HR MIN TEMP:  43; 6HR MAX TEMP:  70;

WINNER         FAIR      76  45  33 S22G28    30.13F
YANKTON        MOSUNNY   70  48  46 S10       30.24F
$$

MNZ071-072-080-081-089-090-097-098-221900-
SOUTHWEST MINNESOTA

CITY           SKY/WX    TMP DP  RH WIND       PRES   REMARKS
FAIRMONT       SUNNY     70  45  40 SW5       30.27S
JACKSON        SUNNY     70  46  43 SW9       30.27S
LUVERNE        SUNNY     72  45  37 SW8       30.25F
MARSHALL       SUNNY     72  46  40 W8        30.22F
6HR MIN TEMP:  50; 6HR MAX TEMP:  72;

MONTEVIDEO     SUNNY     73  52  46 W6        30.22F
PIPESTONE      SUNNY     68  45  42 SW8       30.24F
REDWOOD FALLS  SUNNY     70  47  43 W8        30.22F
TRACY          SUNNY     70  47  44 SW3       30.23F
WINDOM         SUNNY     70  46  43 S7        30.25F
WORTHINGTON    SUNNY     66  46  48 SW7       30.26F
$$

IAZ001>003-012>014-020>022-031-032-NEZ013-014-SDZ071-221900-
NORTHWEST IOWA

CITY           SKY/WX    TMP DP  RH WIND       PRES   REMARKS
CHEROKEE       SUNNY     69  48  48 SW7       30.28S
DENISON        SUNNY     68  50  52 CALM      30.27F
ESTHERVILLE    SUNNY     67  47  48 MISG      30.27F
LE MARS        SUNNY     70  48  46 SW9G15    30.26F
ORANGE CITY    SUNNY     70  45  40 SW10      30.26F
SHELDON        SUNNY     68  48  49 SW8       30.25F
SIOUX CITY     SUNNY     71  49  45 S8        30.27F
6HR MIN TEMP:  44; 6HR MAX TEMP:  71;

SPENCER        SUNNY     68  47  46 SW5       30.27F
6HR MIN TEMP:  38; 6HR MAX TEMP:  69;

$$

ABBREVIATIONS USED IN REMARKS
   TC - TEMPERATURE IN CELSIUS
  WCI - WIND CHILL INDEX
   HX - HEAT INDEX
  VSB - VISIBILITY



USA.gov is the U.S. government's official web portal to all federal, state and local government web resources and services.